SCP
0 0 0 0 0 0 0 0 0 0 0 0 0 0 0 0 0 0 0 0 0 0
0 0 0 0 0 0 0 0 0 0 0 0 0 0 0 0 0 0 0 0 0 0
0 0 0 0 0 0 0 0 0 0 0 0 0 0 0 0 0 0 0 0 0 0
0 0 0 0 0 0 0 0 0 0 0 0 0 0 0 0 0 0 0 0 0 0
0 0 0 0 0 0 0 0 0 0 0 0 0 0 0 0 0 0 0 0 0 0
0 0 0 0 0 0 0 0 0 0 0 0 0 0 0 0 0 0 0 0 0 0
0 0 0 0 0 0 0 0 0 0 0 0 0 0 0 0 0 0 0 0 0 0
0 0 0 0 0 0 0 0 0 0 0 0 0 0 0 0 0 0 0 0 0 0
0 0 0 0 0 0 0 0 0 0 0 0 0 0 0 0 0 0 0 0 0 0
0 0 0 0 0 0 0 0 0 0 0 0 0 0 0 0 0 0 0 0 0 0
0 0 0 0 0 0 0 0 0 0 0 0 0 0 0 0 0 0 0 0 0 0
0 0 0 0 0 0 0 0 0 0 0 0 0 0 0 0 0 0 0 0 0 0
0 0 0 0 0 0 0 0 0 0 0 0 0 0 0 0 0 0 0 0 0 0
0 0 0 0 0 0 0 0 0 0 0 0 0 0 0 0 0 0 0 0 0 0
Wind_Speed_500mb
59 62 62 60 60 60 56 57 54 48 50 46 40 46 44 46 51 55 57 59 63 65
60 63 66 67 66 63 63 61 51 48 46 42 45 52 47 40 43 45 50 56 57 61
35 39 42 45 46 46 47 52 57 52 49 48 49 48 42 41 45 46 45 47 50 52
34 37 40 43 44 44 41 39 40 44 50 54 58 61 58 50 45 43 45 43 41 44
29 32 35 37 39 40 40 39 39 40 41 43 43 43 43 36 34 34 35 35 35 36
22 26 28 28 29 29 31 33 34 35 34 35 36 32 28 24 25 24 23 24 26 26
16 18 18 18 19 18 16 13 14 15 17 17 15 15 15 13 15 15 16 16 15 16
9 8 10 11 12 12 13 13 11 10 11 13 14 13 13 14 13 12 11 8 10 9
8 11 13 13 14 15 16 15 15 15 15 14 14 15 15 15 13 14 14 13 12 10
14 16 18 16 16 19 19 17 17 16 16 17 19 19 21 22 20 19 19 16 13 9
17 20 20 17 16 16 18 18 16 17 21 17 21 24 26 25 21 19 17 14 9 4
23 22 21 18 16 18 20 20 25 19 15 19 26 25 25 22 17 13 9 6 2 4
21 20 21 21 19 18 23 26 26 25 26 24 25 23 17 15 12 6 2 4 6 10
21 21 22 23 22 23 26 27 29 29 28 25 20 17 12 9 4 3 6 8 11 15
Wind_Direction_500mb
241 243 246 247 248 250 255 258 253 244 246 255 256 257 257 256 257 260 266 266 268 272
246 249 253 255 257 255 252 250 248 240 239 247 251 256 255 261 260 259 260 258 264 268
240 241 244 248 252 253 251 249 249 244 238 240 248 253 253 255 266 261 262 263 262 268
250 249 248 248 249 250 250 248 247 245 243 244 245 250 257 260 255 260 261 262 264 263
259 255 252 250 248 247 248 249 249 249 250 251 251 250 248 246 252 255 255 256 259 263
259 256 247 239 238 240 241 243 245 245 245 246 246 240 242 233 238 242 246 251 257 261
265 260 243 229 224 216 218 223 226 223 223 225 214 217 213 213 221 231 236 238 261 271
274 222 211 197 195 195 196 196 186 172 167 160 165 170 183 197 206 214 218 201 235 242
211 188 183 178 179 180 175 171 165 161 162 163 173 182 182 173 169 157 144 142 143 142
195 178 167 159 169 163 161 158 156 154 164 161 149 148 146 133 128 124 122 120 124 129
184 167 151 157 153 159 160 156 155 162 146 149 140 131 125 118 116 117 115 116 109 113
187 182 175 167 178 183 177 168 151 140 146 133 128 122 119 116 115 116 122 121 135 278
199 196 193 176 171 175 165 156 153 154 140 136 133 127 123 122 114 113 69 345 318 308
207 201 191 183 169 167 165 161 153 150 146 146 141 135 124 104 85 356 330 320 314 312
Wind_Speed_850mb
59 62 62 60 60 60 56 57 54 48 50 46 40 46 44 46 51 55 57 59 63 65
60 63 66 67 66 63 63 61 51 48 46 42 45 52 47 40 43 45 50 56 57 61
35 39 42 45 46 46 47 52 57 52 49 48 49 48 42 41 45 46 45 47 50 52
34 37 40 43 44 44 41 39 40 44 50 54 58 61 58 50 45 43 45 43 41 44
29 32 35 37 39 40 40 39 39 40 41 43 43 43 43 36 34 34 35 35 35 36
22 26 28 28 29 29 31 33 34 35 34 35 36 32 28 24 25 24 23 24 26 26
16 18 18 18 19 18 16 13 14 15 17 17 15 15 15 13 15 15 16 16 15 16
9 8 10 11 12 12 13 13 11 10 11 13 14 13 13 14 13 12 11 8 10 9
8 11 13 13 14 15 16 15 15 15 15 14 14 15 15 15 13 14 14 13 12 10
14 16 18 16 16 19 19 17 17 16 16 17 19 19 21 22 20 19 19 16 13 9
17 20 20 17 16 16 18 18 16 17 21 17 21 24 26 25 21 19 17 14 9 4
23 22 21 18 16 18 20 20 25 19 15 19 26 25 25 22 17 13 9 6 2 4
21 20 21 21 19 18 23 26 26 25 26 24 25 23 17 15 12 6 2 4 6 10
21 21 22 23 22 23 26 27 29 29 28 25 20 17 12 9 4 3 6 8 11 15
Wind_Direction_850mb
241 243 246 247 248 250 255 258 253 244 246 255 256 257 257 256 257 260 266 266 268 272
246 249 253 255 257 255 252 250 248 240 239 247 251 256 255 261 260 259 260 258 264 268
240 241 244 248 252 253 251 249 249 244 238 240 248 253 253 255 266 261 262 263 262 268
250 249 248 248 249 250 250 248 247 245 243 244 245 250 257 260 255 260 261 262 264 263
259 255 252 250 248 247 248 249 249 249 250 251 251 250 248 246 252 255 255 256 259 263
259 256 247 239 238 240 241 243 245 245 245 246 246 240 242 233 238 242 246 251 257 261
265 260 243 229 224 216 218 223 226 223 223 225 214 217 213 213 221 231 236 238 261 271
274 222 211 197 195 195 196 196 186 172 167 160 165 170 183 197 206 214 218 201 235 242
211 188 183 178 179 180 175 171 165 161 162 163 173 182 182 173 169 157 144 142 143 142
195 178 167 159 169 163 161 158 156 154 164 161 149 148 146 133 128 124 122 120 124 129
184 167 151 157 153 159 160 156 155 162 146 149 140 131 125 118 116 117 115 116 109 113
187 182 175 167 178 183 177 168 151 140 146 133 128 122 119 116 115 116 122 121 135 278
199 196 193 176 171 175 165 156 153 154 140 136 133 127 123 122 114 113 69 345 318 308
207 201 191 183 169 167 165 161 153 150 146 146 141 135 124 104 85 356 330 320 314 312